Time,TemperatureF,DewpointF,PressureIn,WindDirection,WindDirectionDegrees,WindSpeedMPH,WindSpeedGustMPH,Humidity,HourlyPrecipIn,Conditions,Clouds,dailyrainin,SolarRadiationWatts/m^2,SoftwareType,DateUTC
2013-02-18 00:04:00,58.6,31.8,30.16,SSE,153,15.0,0.0,36,0.00,,,0.00,0,WeatherHawk,2013-02-18 06:04:00,
2013-02-18 00:09:00,58.4,32.2,30.16,SSE,155,11.0,0.0,37,0.00,,,0.00,1,WeatherHawk,2013-02-18 06:09:00,
2013-02-18 00:14:00,58.3,32.1,30.15,SE,134,15.0,0.0,37,0.00,,,0.00,0,WeatherHawk,2013-02-18 06:14:00,
2013-02-18 00:20:00,58.0,31.8,30.15,SE,125,8.0,0.0,37,0.00,,,0.00,1,WeatherHawk,2013-02-18 06:20:00,
2013-02-18 00:25:00,57.8,32.4,30.15,East,97,12.0,0.0,38,0.00,,,0.00,0,WeatherHawk,2013-02-18 06:25:00,
2013-02-18 00:30:00,57.7,32.2,30.15,SSE,148,9.0,0.0,38,0.00,,,0.00,0,WeatherHawk,2013-02-18 06:30:00,
2013-02-18 00:35:00,57.7,32.3,30.15,SE,141,13.0,0.0,38,0.00,,,0.00,0,WeatherHawk,2013-02-18 06:35:00,
2013-02-18 00:40:00,57.6,32.8,30.15,SSE,158,10.0,-999.0,39,0.00,,,0.00,0,WeatherHawk,2013-02-18 06:40:00,
2013-02-18 00:45:00,57.5,32.7,30.15,South,170,13.0,0.0,39,0.00,,,0.00,1,WeatherHawk,2013-02-18 06:45:00,
2013-02-18 00:50:00,57.6,32.9,30.14,SE,139,15.0,0.0,39,0.00,,,0.00,0,WeatherHawk,2013-02-18 06:50:00,
2013-02-18 00:55:00,57.4,33.3,30.14,SSE,159,10.0,0.0,40,0.00,,,0.00,1,WeatherHawk,2013-02-18 06:55:00,
2013-02-18 01:00:00,57.5,33.3,30.14,SSE,150,11.0,0.0,40,0.00,,,0.00,1,WeatherHawk,2013-02-18 07:00:00,
2013-02-18 01:05:00,57.5,34.0,30.13,SSE,153,14.0,0.0,41,0.00,,,0.00,1,WeatherHawk,2013-02-18 07:05:00,
2013-02-18 01:10:00,57.5,33.4,30.14,ESE,120,15.0,0.0,40,0.00,,,0.00,1,WeatherHawk,2013-02-18 07:10:00,
2013-02-18 01:15:00,57.3,33.8,30.14,SE,126,13.0,-999.0,41,0.00,,,0.00,0,WeatherHawk,2013-02-18 07:15:00,
2013-02-18 01:20:00,57.6,34.1,30.14,SSE,147,17.0,0.0,41,0.00,,,0.00,1,WeatherHawk,2013-02-18 07:20:00,
2013-02-18 01:25:00,57.4,33.9,30.14,SSE,166,12.0,0.0,41,0.00,,,0.00,1,WeatherHawk,2013-02-18 07:25:00,
2013-02-18 01:30:00,57.1,34.3,30.14,SE,144,8.0,-999.0,42,0.00,,,0.00,1,WeatherHawk,2013-02-18 07:30:00,
2013-02-18 01:35:00,57.0,34.1,30.14,ESE,116,7.0,-999.0,42,0.00,,,0.00,0,WeatherHawk,2013-02-18 07:35:00,
2013-02-18 01:40:00,57.2,34.3,30.13,SE,138,14.0,-999.0,42,0.00,,,0.00,0,WeatherHawk,2013-02-18 07:40:00,
2013-02-18 01:45:00,57.2,34.9,30.13,SSE,160,11.0,0.0,43,0.00,,,0.00,0,WeatherHawk,2013-02-18 07:45:00,
2013-02-18 01:50:00,57.3,35.0,30.13,SSE,148,12.0,-999.0,43,0.00,,,0.00,0,WeatherHawk,2013-02-18 07:50:00,
2013-02-18 01:55:00,57.4,35.1,30.13,SSE,159,10.0,0.0,43,0.00,,,0.00,0,WeatherHawk,2013-02-18 07:55:00,
2013-02-18 02:00:00,57.3,35.0,30.13,SSE,159,9.0,0.0,43,0.00,,,0.00,1,WeatherHawk,2013-02-18 08:00:00,
2013-02-18 02:05:00,57.5,35.1,30.12,South,180,8.0,0.0,43,0.00,,,0.00,0,WeatherHawk,2013-02-18 08:05:00,
2013-02-18 02:10:00,57.5,35.2,30.13,SSE,155,9.0,0.0,43,0.00,,,0.00,0,WeatherHawk,2013-02-18 08:10:00,
2013-02-18 02:15:00,57.5,35.2,30.13,SSE,149,10.0,0.0,43,0.00,,,0.00,1,WeatherHawk,2013-02-18 08:15:00,
2013-02-18 02:20:00,57.6,35.3,30.12,SE,136,8.0,0.0,43,0.00,,,0.00,0,WeatherHawk,2013-02-18 08:20:00,
2013-02-18 02:25:00,57.5,35.8,30.13,SSE,157,8.0,0.0,44,0.00,,,0.00,0,WeatherHawk,2013-02-18 08:25:00,
2013-02-18 02:30:00,57.7,35.4,30.12,SE,138,11.0,0.0,43,0.00,,,0.00,1,WeatherHawk,2013-02-18 08:30:00,
2013-02-18 02:35:00,57.7,35.9,30.10,SSE,153,9.0,0.0,44,0.00,,,0.00,1,WeatherHawk,2013-02-18 08:35:00,
2013-02-18 02:40:00,57.8,36.0,30.11,SSE,150,11.0,0.0,44,0.00,,,0.00,1,WeatherHawk,2013-02-18 08:40:00,
2013-02-18 02:45:00,58.1,36.3,30.10,ESE,121,12.0,0.0,44,0.00,,,0.00,0,WeatherHawk,2013-02-18 08:45:00,
2013-02-18 02:50:00,58.0,36.3,30.10,SE,134,7.0,0.0,44,0.00,,,0.00,0,WeatherHawk,2013-02-18 08:50:00,
2013-02-18 02:55:00,58.2,36.4,30.10,SSE,147,15.0,-999.0,44,0.00,,,0.00,0,WeatherHawk,2013-02-18 08:55:00,
2013-02-18 03:00:00,58.2,36.4,30.10,SE,142,12.0,0.0,44,0.00,,,0.00,0,WeatherHawk,2013-02-18 09:00:00,
2013-02-18 03:05:00,58.4,36.6,30.09,SE,131,17.0,-999.0,44,0.00,,,0.00,0,WeatherHawk,2013-02-18 09:05:00,
2013-02-18 03:10:00,58.4,37.1,30.10,SSE,151,13.0,-999.0,45,0.00,,,0.00,0,WeatherHawk,2013-02-18 09:10:00,
2013-02-18 03:15:00,58.4,37.2,30.09,SE,141,17.0,0.0,45,0.00,,,0.00,1,WeatherHawk,2013-02-18 09:15:00,
2013-02-18 03:20:00,58.4,37.1,30.09,SSE,163,9.0,0.0,45,0.00,,,0.00,0,WeatherHawk,2013-02-18 09:20:00,
2013-02-18 03:25:00,58.5,37.2,30.08,SE,145,13.0,0.0,45,0.00,,,0.00,0,WeatherHawk,2013-02-18 09:25:00,
2013-02-18 03:30:00,58.6,37.3,30.09,South,173,16.0,0.0,45,0.00,,,0.00,0,WeatherHawk,2013-02-18 09:30:00,
2013-02-18 03:35:00,58.5,37.2,30.09,South,170,7.0,0.0,45,0.00,,,0.00,0,WeatherHawk,2013-02-18 09:35:00,
2013-02-18 03:40:00,58.6,37.4,30.08,SSE,155,15.0,0.0,45,0.00,,,0.00,0,WeatherHawk,2013-02-18 09:40:00,
2013-02-18 03:45:00,58.9,38.2,30.08,SSE,147,13.0,-999.0,46,0.00,,,0.00,1,WeatherHawk,2013-02-18 09:45:00,
2013-02-18 03:50:00,58.8,37.5,30.08,SE,146,11.0,0.0,45,0.00,,,0.00,0,WeatherHawk,2013-02-18 09:50:00,
2013-02-18 03:55:00,58.8,38.0,30.07,SE,142,13.0,-999.0,46,0.00,,,0.00,0,WeatherHawk,2013-02-18 09:55:00,
2013-02-18 04:00:00,58.8,38.0,30.08,South,169,5.0,0.0,46,0.00,,,0.00,0,WeatherHawk,2013-02-18 10:00:00,
2013-02-18 04:05:00,58.7,38.0,30.08,SSE,167,10.0,0.0,46,0.00,,,0.00,1,WeatherHawk,2013-02-18 10:05:00,
2013-02-18 04:10:00,58.8,38.1,30.07,SSE,166,11.0,0.0,46,0.00,,,0.00,0,WeatherHawk,2013-02-18 10:10:00,
2013-02-18 04:15:00,58.9,38.1,30.07,SE,132,14.0,0.0,46,0.00,,,0.00,1,WeatherHawk,2013-02-18 10:15:00,
2013-02-18 04:20:00,58.9,38.7,30.06,ESE,123,8.0,0.0,47,0.00,,,0.00,1,WeatherHawk,2013-02-18 10:20:00,
2013-02-18 04:25:00,58.9,38.7,30.07,SE,135,8.0,0.0,47,0.00,,,0.00,0,WeatherHawk,2013-02-18 10:25:00,
2013-02-18 04:30:00,59.2,39.0,30.06,SSE,149,17.0,0.0,47,0.00,,,0.00,0,WeatherHawk,2013-02-18 10:30:00,
2013-02-18 04:35:00,59.1,38.9,30.06,SSE,147,13.0,-999.0,47,0.00,,,0.00,1,WeatherHawk,2013-02-18 10:35:00,
2013-02-18 04:40:00,59.2,39.0,30.06,SSE,168,17.0,0.0,47,0.00,,,0.00,0,WeatherHawk,2013-02-18 10:40:00,
2013-02-18 04:45:00,59.2,38.9,30.06,SSE,152,10.0,0.0,47,0.00,,,0.00,1,WeatherHawk,2013-02-18 10:45:00,
2013-02-18 04:50:00,59.3,39.0,30.06,SSE,158,15.0,0.0,47,0.00,,,0.00,0,WeatherHawk,2013-02-18 10:50:00,
2013-02-18 04:55:00,59.2,39.0,30.06,SSE,163,10.0,-999.0,47,0.00,,,0.00,0,WeatherHawk,2013-02-18 10:55:00,
2013-02-18 05:00:00,59.2,39.5,30.05,SSE,153,13.0,0.0,48,0.00,,,0.00,0,WeatherHawk,2013-02-18 11:00:00,
2013-02-18 05:05:00,59.4,39.7,30.05,SE,140,12.0,-999.0,48,0.00,,,0.00,0,WeatherHawk,2013-02-18 11:05:00,
2013-02-18 05:10:00,59.3,39.6,30.05,South,175,11.0,0.0,48,0.00,,,0.00,0,WeatherHawk,2013-02-18 11:10:00,
2013-02-18 05:15:00,59.4,39.7,30.05,South,172,12.0,0.0,48,0.00,,,0.00,0,WeatherHawk,2013-02-18 11:15:00,
2013-02-18 05:20:00,59.5,40.3,30.05,SE,135,11.0,0.0,49,0.00,,,0.00,0,WeatherHawk,2013-02-18 11:20:00,
2013-02-18 05:25:00,59.6,40.4,30.04,SSE,148,16.0,0.0,49,0.00,,,0.00,0,WeatherHawk,2013-02-18 11:25:00,
2013-02-18 05:30:00,59.4,40.2,30.05,ESE,114,9.0,0.0,49,0.00,,,0.00,0,WeatherHawk,2013-02-18 11:30:00,
2013-02-18 05:35:00,59.6,40.4,30.05,SE,135,16.0,0.0,49,0.00,,,0.00,0,WeatherHawk,2013-02-18 11:35:00,
2013-02-18 05:40:00,59.5,40.8,30.05,SE,137,14.0,0.0,50,0.00,,,0.00,1,WeatherHawk,2013-02-18 11:40:00,
2013-02-18 05:45:00,59.4,40.8,30.04,SSE,167,9.0,0.0,50,0.00,,,0.00,1,WeatherHawk,2013-02-18 11:45:00,
2013-02-18 05:50:00,59.5,40.8,30.04,SE,134,10.0,0.0,50,0.00,,,0.00,1,WeatherHawk,2013-02-18 11:50:00,
2013-02-18 05:55:00,59.6,40.9,30.04,South,171,14.0,0.0,50,0.00,,,0.00,0,WeatherHawk,2013-02-18 11:55:00,
2013-02-18 06:00:00,59.6,41.4,30.04,SSE,148,9.0,0.0,51,0.00,,,0.00,1,WeatherHawk,2013-02-18 12:00:00,
2013-02-18 06:05:00,59.7,41.6,30.04,SE,133,10.0,0.0,51,0.00,,,0.00,0,WeatherHawk,2013-02-18 12:05:00,
2013-02-18 06:10:00,59.6,41.5,30.04,SSE,161,11.0,0.0,51,0.00,,,0.00,0,WeatherHawk,2013-02-18 12:10:00,
2013-02-18 06:15:00,59.7,41.5,30.04,SE,139,10.0,-999.0,51,0.00,,,0.00,0,WeatherHawk,2013-02-18 12:15:00,
2013-02-18 06:20:00,59.8,41.6,30.04,SSE,166,11.0,0.0,51,0.00,,,0.00,0,WeatherHawk,2013-02-18 12:20:00,
2013-02-18 06:25:00,59.7,41.6,30.04,SE,137,7.0,0.0,51,0.00,,,0.00,1,WeatherHawk,2013-02-18 12:25:00,
2013-02-18 06:30:00,59.9,41.8,30.05,SSE,158,14.0,0.0,51,0.00,,,0.00,0,WeatherHawk,2013-02-18 12:30:00,
2013-02-18 06:35:00,59.9,41.7,30.05,SSE,166,8.0,0.0,51,0.00,,,0.00,1,WeatherHawk,2013-02-18 12:35:00,
2013-02-18 06:40:00,59.9,41.8,30.04,SE,141,10.0,0.0,51,0.00,,,0.00,0,WeatherHawk,2013-02-18 12:40:00,
2013-02-18 06:45:00,60.1,41.9,30.04,SSE,162,11.0,0.0,51,0.00,,,0.00,0,WeatherHawk,2013-02-18 12:45:00,
2013-02-18 06:50:00,60.1,42.4,30.04,SE,126,7.0,0.0,52,0.00,,,0.00,0,WeatherHawk,2013-02-18 12:50:00,
2013-02-18 06:55:00,60.3,42.6,30.03,SSE,168,11.0,0.0,52,0.00,,,0.00,0,WeatherHawk,2013-02-18 12:55:00,
2013-02-18 07:00:00,60.1,42.4,30.05,South,180,5.0,0.0,52,0.00,,,0.00,1,WeatherHawk,2013-02-18 13:00:00,
2013-02-18 07:05:00,60.3,42.6,30.05,SSE,156,7.0,0.0,52,0.00,,,0.00,1,WeatherHawk,2013-02-18 13:05:00,
2013-02-18 07:10:00,60.3,42.6,30.06,SE,145,9.0,0.0,52,0.00,,,0.00,1,WeatherHawk,2013-02-18 13:10:00,
2013-02-18 07:15:00,60.6,42.8,30.06,SSW,193,9.0,0.0,52,0.00,,,0.00,5,WeatherHawk,2013-02-18 13:15:00,
2013-02-18 07:20:00,60.7,43.0,30.05,SE,130,12.0,0.0,52,0.00,,,0.00,7,WeatherHawk,2013-02-18 13:20:00,
2013-02-18 07:25:00,60.6,42.8,30.06,SSE,153,8.0,0.0,52,0.00,,,0.00,10,WeatherHawk,2013-02-18 13:25:00,
2013-02-18 07:30:00,60.7,43.0,30.05,SSE,155,13.0,0.0,52,0.00,,,0.00,15,WeatherHawk,2013-02-18 13:30:00,
2013-02-18 07:35:00,60.9,43.1,30.04,SSE,166,14.0,0.0,52,0.00,,,0.00,20,WeatherHawk,2013-02-18 13:35:00,
2013-02-18 07:40:00,60.8,43.1,30.05,SSE,161,10.0,0.0,52,0.00,,,0.00,25,WeatherHawk,2013-02-18 13:40:00,
2013-02-18 07:45:00,60.8,43.5,30.04,SSE,157,7.0,0.0,53,0.00,,,0.00,35,WeatherHawk,2013-02-18 13:45:00,
2013-02-18 07:51:00,60.9,43.6,30.04,South,176,12.0,0.0,53,0.00,,,0.00,43,WeatherHawk,2013-02-18 13:51:00,
2013-02-18 07:57:00,61.1,43.3,30.04,SSE,147,7.0,0.0,52,0.00,,,0.00,52,WeatherHawk,2013-02-18 13:57:00,
2013-02-18 08:02:00,61.1,43.3,30.04,SE,127,9.0,0.0,52,0.00,,,0.00,63,WeatherHawk,2013-02-18 14:02:00,
2013-02-18 08:07:00,61.3,43.5,30.04,SSE,151,8.0,0.0,52,0.00,,,0.00,83,WeatherHawk,2013-02-18 14:07:00,
2013-02-18 08:13:00,61.5,43.2,30.05,SSE,156,12.0,0.0,51,0.00,,,0.00,77,WeatherHawk,2013-02-18 14:13:00,
2013-02-18 08:18:00,61.7,43.3,30.04,South,171,11.0,0.0,51,0.00,,,0.00,96,WeatherHawk,2013-02-18 14:18:00,
2013-02-18 08:23:00,62.0,43.6,30.05,South,175,9.0,0.0,51,0.00,,,0.00,110,WeatherHawk,2013-02-18 14:23:00,
2013-02-18 08:28:00,62.1,42.7,30.05,SE,142,16.0,0.0,49,0.00,,,0.00,116,WeatherHawk,2013-02-18 14:28:00,
2013-02-18 08:33:00,62.3,42.9,30.03,South,176,11.0,0.0,49,0.00,,,0.00,176,WeatherHawk,2013-02-18 14:33:00,
2013-02-18 08:38:00,62.6,43.2,30.03,South,179,8.0,0.0,49,0.00,,,0.00,213,WeatherHawk,2013-02-18 14:38:00,
2013-02-18 08:43:00,63.1,42.5,30.04,SSE,160,12.0,0.0,47,0.00,,,0.00,233,WeatherHawk,2013-02-18 14:43:00,
2013-02-18 08:49:00,63.8,42.0,30.03,ESE,113,10.0,0.0,45,0.00,,,0.00,265,WeatherHawk,2013-02-18 14:49:00,
2013-02-18 08:54:00,64.0,41.6,30.03,South,177,13.0,0.0,44,0.00,,,0.00,268,WeatherHawk,2013-02-18 14:54:00,
2013-02-18 08:59:00,64.4,42.0,30.03,South,184,16.0,0.0,44,0.00,,,0.00,276,WeatherHawk,2013-02-18 14:59:00,
2013-02-18 09:04:00,65.4,42.3,30.03,South,185,8.0,0.0,43,0.00,,,0.00,275,WeatherHawk,2013-02-18 15:04:00,
2013-02-18 09:09:00,65.3,41.6,30.03,ESE,122,14.0,0.0,42,0.00,,,0.00,334,WeatherHawk,2013-02-18 15:09:00,
2013-02-18 09:14:00,64.7,40.4,30.03,SSE,165,13.0,0.0,41,0.00,,,0.00,187,WeatherHawk,2013-02-18 15:14:00,
2013-02-18 09:20:00,65.0,41.4,30.04,South,190,14.0,-999.0,42,0.00,,,0.00,230,WeatherHawk,2013-02-18 15:20:00,
2013-02-18 09:25:00,65.7,40.7,30.03,SSW,193,17.0,0.0,40,0.00,,,0.00,509,WeatherHawk,2013-02-18 15:25:00,
2013-02-18 09:30:00,65.6,41.3,30.02,South,177,11.0,0.0,41,0.00,,,0.00,202,WeatherHawk,2013-02-18 15:30:00,
2013-02-18 09:35:00,66.5,41.4,30.02,South,184,17.0,0.0,40,0.00,,,0.00,537,WeatherHawk,2013-02-18 15:35:00,
2013-02-18 09:40:00,66.9,41.1,30.02,SW,219,8.0,0.0,39,0.00,,,0.00,213,WeatherHawk,2013-02-18 15:40:00,
2013-02-18 09:45:00,67.6,41.1,30.02,South,184,13.0,0.0,38,0.00,,,0.00,530,WeatherHawk,2013-02-18 15:45:00,
2013-02-18 09:50:00,68.1,41.5,30.01,SSW,198,17.0,0.0,38,0.00,,,0.00,512,WeatherHawk,2013-02-18 15:50:00,
2013-02-18 09:55:00,67.1,40.0,30.01,SSW,204,17.0,0.0,37,0.00,,,0.00,470,WeatherHawk,2013-02-18 15:55:00,
2013-02-18 10:00:00,67.5,38.9,30.00,SSE,151,13.0,-999.0,35,0.00,,,0.00,325,WeatherHawk,2013-02-18 16:00:00,
2013-02-18 10:05:00,67.6,39.0,30.00,SW,227,19.0,0.0,35,0.00,,,0.00,242,WeatherHawk,2013-02-18 16:05:00,
2013-02-18 10:10:00,68.2,39.5,30.00,SW,219,17.0,0.0,35,0.00,,,0.00,298,WeatherHawk,2013-02-18 16:10:00,
2013-02-18 10:15:00,69.5,40.7,30.01,SSW,205,13.0,0.0,35,0.00,,,0.00,661,WeatherHawk,2013-02-18 16:15:00,
2013-02-18 10:20:00,68.6,38.4,30.01,SW,229,10.0,0.0,33,0.00,,,0.00,251,WeatherHawk,2013-02-18 16:20:00,
2013-02-18 10:25:00,68.8,39.3,30.01,SSW,194,14.0,0.0,34,0.00,,,0.00,647,WeatherHawk,2013-02-18 16:25:00,
2013-02-18 10:30:00,69.4,38.3,30.01,SSW,210,13.0,0.0,32,0.00,,,0.00,436,WeatherHawk,2013-02-18 16:30:00,
2013-02-18 10:35:00,69.4,37.4,30.00,SSW,206,16.0,0.0,31,0.00,,,0.00,669,WeatherHawk,2013-02-18 16:35:00,
2013-02-18 10:41:00,69.0,37.9,30.00,SSW,201,13.0,0.0,32,0.00,,,0.00,176,WeatherHawk,2013-02-18 16:41:00,
2013-02-18 10:46:00,70.4,38.3,30.01,South,188,16.0,0.0,31,0.00,,,0.00,628,WeatherHawk,2013-02-18 16:46:00,
2013-02-18 10:51:00,70.5,37.6,30.00,SSW,201,17.0,0.0,30,0.00,,,0.00,642,WeatherHawk,2013-02-18 16:51:00,
2013-02-18 10:57:00,69.7,36.9,30.00,SSW,211,22.0,0.0,30,0.00,,,0.00,543,WeatherHawk,2013-02-18 16:57:00,
2013-02-18 11:03:00,72.4,38.3,29.99,SSW,208,11.0,0.0,29,0.00,,,0.00,622,WeatherHawk,2013-02-18 17:03:00,
2013-02-18 11:09:00,71.2,35.5,30.01,SSW,203,18.0,0.0,27,0.00,,,0.00,659,WeatherHawk,2013-02-18 17:09:00,
2013-02-18 11:14:00,71.2,34.5,30.00,SW,235,28.0,0.0,26,0.00,,,0.00,733,WeatherHawk,2013-02-18 17:14:00,
2013-02-18 11:20:00,71.3,34.6,30.00,South,178,20.0,0.0,26,0.00,,,0.00,325,WeatherHawk,2013-02-18 17:20:00,
2013-02-18 11:25:00,73.0,35.1,30.00,SSE,164,17.0,0.0,25,0.00,,,0.00,821,WeatherHawk,2013-02-18 17:25:00,
2013-02-18 11:30:00,72.3,33.5,30.00,South,188,20.0,0.0,24,0.00,,,0.00,764,WeatherHawk,2013-02-18 17:30:00,
2013-02-18 11:35:00,73.1,32.0,30.00,SSW,197,19.0,0.0,22,0.00,,,0.00,868,WeatherHawk,2013-02-18 17:35:00,
2013-02-18 11:40:00,73.0,30.8,29.99,SSW,198,14.0,0.0,21,0.00,,,0.00,359,WeatherHawk,2013-02-18 17:40:00,
2013-02-18 11:45:00,73.4,31.1,30.00,SW,233,14.0,0.0,21,0.00,,,0.00,280,WeatherHawk,2013-02-18 17:45:00,
2013-02-18 11:50:00,72.9,28.2,29.99,SW,215,17.0,0.0,19,0.00,,,0.00,262,WeatherHawk,2013-02-18 17:50:00,
2013-02-18 11:55:00,73.7,26.2,29.98,SSW,196,18.0,0.0,17,0.00,,,0.00,294,WeatherHawk,2013-02-18 17:55:00,
2013-02-18 12:01:00,74.5,25.4,29.98,SSW,199,19.0,0.0,16,0.00,,,0.00,789,WeatherHawk,2013-02-18 18:01:00,
2013-02-18 12:06:00,74.1,25.0,29.97,SE,141,23.0,0.0,16,0.00,,,0.00,731,WeatherHawk,2013-02-18 18:06:00,
2013-02-18 12:12:00,75.5,24.6,29.97,SSW,193,14.0,0.0,15,0.00,,,0.00,470,WeatherHawk,2013-02-18 18:12:00,
2013-02-18 12:18:00,75.1,19.0,29.97,SSW,206,21.0,0.0,12,0.00,,,0.00,755,WeatherHawk,2013-02-18 18:18:00,
2013-02-18 12:23:00,74.6,14.4,29.97,SW,220,28.0,0.0,10,0.00,,,0.00,728,WeatherHawk,2013-02-18 18:23:00,
2013-02-18 12:28:00,74.2,14.1,29.98,SSW,198,20.0,0.0,10,0.00,,,0.00,200,WeatherHawk,2013-02-18 18:28:00,
2013-02-18 12:33:00,75.5,15.1,29.97,South,180,21.0,0.0,10,0.00,,,0.00,790,WeatherHawk,2013-02-18 18:33:00,
2013-02-18 12:39:00,76.3,10.7,29.97,SSW,204,18.0,0.0,8,0.00,,,0.00,787,WeatherHawk,2013-02-18 18:39:00,
2013-02-18 12:44:00,75.5,15.1,29.97,SW,219,24.0,0.0,10,0.00,,,0.00,716,WeatherHawk,2013-02-18 18:44:00,
2013-02-18 12:50:00,75.3,15.0,29.95,SSW,201,21.0,-999.0,10,0.00,,,0.00,732,WeatherHawk,2013-02-18 18:50:00,
2013-02-18 12:55:00,76.9,16.2,29.96,SW,227,14.0,0.0,10,0.00,,,0.00,736,WeatherHawk,2013-02-18 18:55:00,
2013-02-18 13:00:00,75.7,12.9,29.96,SSW,208,26.0,0.0,9,0.00,,,0.00,760,WeatherHawk,2013-02-18 19:00:00,
2013-02-18 13:05:00,76.7,10.9,29.97,SW,224,17.0,0.0,8,0.00,,,0.00,750,WeatherHawk,2013-02-18 19:05:00,
2013-02-18 13:10:00,77.2,14.0,29.95,South,182,9.0,0.0,9,0.00,,,0.00,702,WeatherHawk,2013-02-18 19:10:00,
2013-02-18 13:15:00,77.1,8.3,29.96,SSE,162,9.0,0.0,7,0.00,,,0.00,703,WeatherHawk,2013-02-18 19:15:00,
2013-02-18 13:21:00,77.2,11.4,29.95,WSW,237,11.0,0.0,8,0.00,,,0.00,698,WeatherHawk,2013-02-18 19:21:00,
2013-02-18 13:26:00,76.8,13.7,29.95,SW,217,19.0,0.0,9,0.00,,,0.00,700,WeatherHawk,2013-02-18 19:26:00,
2013-02-18 13:31:00,77.5,11.6,29.94,NNE,31,11.0,0.0,8,0.00,,,0.00,693,WeatherHawk,2013-02-18 19:31:00,
2013-02-18 13:37:00,77.7,8.8,29.94,SW,216,13.0,0.0,7,0.00,,,0.00,695,WeatherHawk,2013-02-18 19:37:00,
2013-02-18 13:42:00,78.1,5.6,29.95,SW,218,14.0,0.0,6,0.00,,,0.00,722,WeatherHawk,2013-02-18 19:42:00,
2013-02-18 13:47:00,77.1,11.3,29.95,West,260,10.0,0.0,8,0.00,,,0.00,196,WeatherHawk,2013-02-18 19:47:00,
2013-02-18 13:52:00,76.9,8.1,29.94,South,186,18.0,0.0,7,0.00,,,0.00,782,WeatherHawk,2013-02-18 19:52:00,
2013-02-18 13:57:00,78.4,12.3,29.95,North,3,10.0,0.0,8,0.00,,,0.00,806,WeatherHawk,2013-02-18 19:57:00,
2013-02-18 14:02:00,78.1,1.7,29.94,South,189,15.0,0.0,5,0.00,,,0.00,829,WeatherHawk,2013-02-18 20:02:00,
2013-02-18 14:08:00,76.7,4.6,29.94,SSE,166,13.0,0.0,6,0.00,,,0.00,209,WeatherHawk,2013-02-18 20:08:00,
2013-02-18 14:13:00,75.7,0.0,29.97,South,174,9.0,0.0,5,0.00,,,0.00,144,WeatherHawk,2013-02-18 20:13:00,
2013-02-18 14:18:00,71.4,4.2,29.96,NNW,344,14.0,0.0,7,0.00,,,0.00,104,WeatherHawk,2013-02-18 20:18:00,
2013-02-18 14:24:00,70.6,0.3,29.99,North,7,7.0,0.0,6,0.00,,,0.00,87,WeatherHawk,2013-02-18 20:24:00,
2013-02-18 14:29:00,70.4,0.1,29.98,NW,317,21.0,0.0,6,0.00,,,0.00,660,WeatherHawk,2013-02-18 20:29:00,
2013-02-18 14:34:00,70.9,0.5,29.99,NNW,338,14.0,0.0,6,0.00,,,0.00,621,WeatherHawk,2013-02-18 20:34:00,
2013-02-18 14:40:00,71.0,0.5,29.99,NNW,342,15.0,-999.0,6,0.00,,,0.00,604,WeatherHawk,2013-02-18 20:40:00,
2013-02-18 14:45:00,70.8,3.7,30.00,NNW,338,17.0,0.0,7,0.00,,,0.00,593,WeatherHawk,2013-02-18 20:45:00,
2013-02-18 14:50:00,69.9,3.1,30.02,NW,323,17.0,0.0,7,0.00,,,0.00,585,WeatherHawk,2013-02-18 20:50:00,
2013-02-18 14:55:00,69.1,2.5,30.01,West,264,14.0,0.0,7,0.00,,,0.00,576,WeatherHawk,2013-02-18 20:55:00,
2013-02-18 15:00:00,69.3,5.5,30.01,East,97,13.0,0.0,8,0.00,,,0.00,563,WeatherHawk,2013-02-18 21:00:00,
2013-02-18 15:06:00,69.2,8.0,30.02,SSW,192,13.0,0.0,9,0.00,,,0.00,551,WeatherHawk,2013-02-18 21:06:00,
2013-02-18 15:11:00,68.2,-5.3,30.02,West,269,14.0,0.0,5,0.00,,,0.00,535,WeatherHawk,2013-02-18 21:11:00,
2013-02-18 15:16:00,69.0,5.3,30.02,ENE,61,8.0,0.0,8,0.00,,,0.00,524,WeatherHawk,2013-02-18 21:16:00,
2013-02-18 15:21:00,69.3,2.6,30.02,ENE,78,6.0,0.0,7,0.00,,,0.00,516,WeatherHawk,2013-02-18 21:21:00,
2013-02-18 15:27:00,67.3,1.2,30.03,North,4,11.0,0.0,7,0.00,,,0.00,503,WeatherHawk,2013-02-18 21:27:00,
2013-02-18 15:32:00,66.3,-2.9,30.05,NNW,339,19.0,0.0,6,0.00,,,0.00,495,WeatherHawk,2013-02-18 21:32:00,
2013-02-18 15:38:00,68.3,-1.4,30.04,NNE,26,11.0,0.0,6,0.00,,,0.00,475,WeatherHawk,2013-02-18 21:38:00,
2013-02-18 15:43:00,68.3,-1.4,30.04,NNE,29,8.0,0.0,6,0.00,,,0.00,463,WeatherHawk,2013-02-18 21:43:00,
2013-02-18 15:49:00,66.6,-2.6,30.05,West,270,12.0,0.0,6,0.00,,,0.00,444,WeatherHawk,2013-02-18 21:49:00,
2013-02-18 15:54:00,67.6,-2.0,30.05,SW,233,11.0,0.0,6,0.00,,,0.00,433,WeatherHawk,2013-02-18 21:54:00,
2013-02-18 15:59:00,66.6,0.6,30.06,WNW,289,18.0,0.0,7,0.00,,,0.00,422,WeatherHawk,2013-02-18 21:59:00,
2013-02-18 16:04:00,66.0,0.2,30.06,West,275,16.0,0.0,7,0.00,,,0.00,411,WeatherHawk,2013-02-18 22:04:00,
2013-02-18 16:10:00,66.5,3.4,30.06,SSW,212,12.0,0.0,8,0.00,,,0.00,394,WeatherHawk,2013-02-18 22:10:00,
2013-02-18 16:15:00,66.0,3.1,30.07,WNW,300,17.0,0.0,8,0.00,,,0.00,382,WeatherHawk,2013-02-18 22:15:00,
2013-02-18 16:20:00,66.1,0.2,30.07,NNW,346,13.0,0.0,7,0.00,,,0.00,363,WeatherHawk,2013-02-18 22:20:00,
2013-02-18 16:25:00,65.8,-3.2,30.08,WNW,296,12.0,0.0,6,0.00,,,0.00,350,WeatherHawk,2013-02-18 22:25:00,
2013-02-18 16:31:00,65.0,4.8,30.08,West,279,17.0,0.0,9,0.00,,,0.00,328,WeatherHawk,2013-02-18 22:31:00,
2013-02-18 16:36:00,65.0,-0.5,30.08,NNW,330,17.0,0.0,7,0.00,,,0.00,315,WeatherHawk,2013-02-18 22:36:00,
2013-02-18 16:41:00,65.6,5.3,30.11,NW,317,8.0,0.0,9,0.00,,,0.00,298,WeatherHawk,2013-02-18 22:41:00,
2013-02-18 16:46:00,65.8,0.0,30.09,East,98,5.0,0.0,7,0.00,,,0.00,280,WeatherHawk,2013-02-18 22:46:00,
2013-02-18 16:52:00,65.4,2.6,30.08,WNW,282,11.0,0.0,8,0.00,,,0.00,264,WeatherHawk,2013-02-18 22:52:00,
2013-02-18 16:57:00,64.4,4.4,30.10,WNW,303,19.0,0.0,9,0.00,,,0.00,246,WeatherHawk,2013-02-18 22:57:00,
2013-02-18 17:02:00,65.2,5.0,30.11,SSE,165,7.0,0.0,9,0.00,,,0.00,225,WeatherHawk,2013-02-18 23:02:00,
2013-02-18 17:08:00,64.6,2.0,30.10,NW,316,18.0,0.0,8,0.00,,,0.00,210,WeatherHawk,2013-02-18 23:08:00,
2013-02-18 17:13:00,64.1,4.1,30.11,North,349,16.0,0.0,9,0.00,,,0.00,192,WeatherHawk,2013-02-18 23:13:00,
2013-02-18 17:19:00,64.2,6.5,30.11,North,9,11.0,0.0,10,0.00,,,0.00,174,WeatherHawk,2013-02-18 23:19:00,
2013-02-18 17:24:00,64.4,4.4,30.12,ENE,75,9.0,0.0,9,0.00,,,0.00,158,WeatherHawk,2013-02-18 23:24:00,
2013-02-18 17:29:00,63.8,3.9,30.12,NW,323,14.0,0.0,9,0.00,,,0.00,141,WeatherHawk,2013-02-18 23:29:00,
2013-02-18 17:34:00,63.8,3.9,30.12,West,275,15.0,0.0,9,0.00,,,0.00,125,WeatherHawk,2013-02-18 23:34:00,
2013-02-18 17:39:00,63.7,6.2,30.13,WSW,243,13.0,0.0,10,0.00,,,0.00,109,WeatherHawk,2013-02-18 23:39:00,
2013-02-18 17:44:00,63.5,3.7,30.13,NW,318,22.0,0.0,9,0.00,,,0.00,94,WeatherHawk,2013-02-18 23:44:00,
2013-02-18 17:49:00,63.3,7.9,30.14,NW,311,14.0,0.0,11,0.00,,,0.00,78,WeatherHawk,2013-02-18 23:49:00,
2013-02-18 17:54:00,63.0,7.7,30.15,WNW,296,13.0,0.0,11,0.00,,,0.00,61,WeatherHawk,2013-02-18 23:54:00,
2013-02-18 18:00:00,62.6,9.3,30.16,WNW,295,12.0,0.0,12,0.00,,,0.00,47,WeatherHawk,2013-02-19 00:00:00,
2013-02-18 18:05:00,62.6,3.0,30.15,North,9,11.0,-999.0,9,0.00,,,0.00,34,WeatherHawk,2013-02-19 00:05:00,
2013-02-18 18:10:00,62.4,7.2,30.16,NE,46,13.0,0.0,11,0.00,,,0.00,9,WeatherHawk,2013-02-19 00:10:00,
2013-02-18 18:15:00,62.3,5.0,30.17,NW,320,15.0,-999.0,10,0.00,,,0.00,5,WeatherHawk,2013-02-19 00:15:00,
2013-02-18 18:20:00,62.0,8.8,30.18,NW,307,14.0,-999.0,12,0.00,,,0.00,3,WeatherHawk,2013-02-19 00:20:00,
2013-02-18 18:25:00,61.5,8.4,30.18,NW,321,9.0,0.0,12,0.00,,,0.00,1,WeatherHawk,2013-02-19 00:25:00,
2013-02-18 18:31:00,61.3,6.4,30.19,NW,304,9.0,0.0,11,0.00,,,0.00,1,WeatherHawk,2013-02-19 00:31:00,
2013-02-18 18:36:00,61.4,4.4,30.19,WNW,292,10.0,0.0,10,0.00,,,0.00,1,WeatherHawk,2013-02-19 00:36:00,
2013-02-18 18:41:00,61.3,6.4,30.20,NNW,345,10.0,0.0,11,0.00,,,0.00,1,WeatherHawk,2013-02-19 00:41:00,
2013-02-18 18:46:00,60.7,5.9,30.20,NNE,14,8.0,0.0,11,0.00,,,0.00,1,WeatherHawk,2013-02-19 00:46:00,
2013-02-18 18:51:00,60.8,6.0,30.20,NW,307,11.0,0.0,11,0.00,,,0.00,0,WeatherHawk,2013-02-19 00:51:00,
2013-02-18 18:57:00,60.4,7.6,30.21,WNW,298,11.0,0.0,12,0.00,,,0.00,0,WeatherHawk,2013-02-19 00:57:00,
2013-02-18 19:02:00,60.6,7.7,30.21,West,269,13.0,0.0,12,0.00,,,0.00,0,WeatherHawk,2013-02-19 01:02:00,
2013-02-18 19:08:00,60.2,5.5,30.21,WSW,250,8.0,0.0,11,0.00,,,0.00,1,WeatherHawk,2013-02-19 01:08:00,
2013-02-18 19:13:00,60.2,9.2,30.22,NNW,331,12.0,0.0,13,0.00,,,0.00,1,WeatherHawk,2013-02-19 01:13:00,
2013-02-18 19:18:00,60.1,7.3,30.21,NNW,348,8.0,0.0,12,0.00,,,0.00,0,WeatherHawk,2013-02-19 01:18:00,
2013-02-18 19:23:00,59.7,7.0,30.21,NW,323,9.0,0.0,12,0.00,,,0.00,0,WeatherHawk,2013-02-19 01:23:00,
2013-02-18 19:28:00,59.7,8.8,30.22,NW,317,10.0,0.0,13,0.00,,,0.00,2,WeatherHawk,2013-02-19 01:28:00,
2013-02-18 19:33:00,59.4,6.8,30.22,West,273,7.0,0.0,12,0.00,,,0.00,1,WeatherHawk,2013-02-19 01:33:00,
2013-02-18 19:38:00,59.3,6.7,30.22,NW,317,5.0,0.0,12,0.00,,,0.00,0,WeatherHawk,2013-02-19 01:38:00,
2013-02-18 19:44:00,58.9,11.3,30.23,North,9,6.0,0.0,15,0.00,,,0.00,1,WeatherHawk,2013-02-19 01:44:00,
2013-02-18 19:50:00,58.2,7.7,30.23,WNW,303,4.0,-999.0,13,0.00,,,0.00,1,WeatherHawk,2013-02-19 01:50:00,
2013-02-18 19:55:00,58.8,11.2,30.23,WNW,294,3.0,0.0,15,0.00,,,0.00,0,WeatherHawk,2013-02-19 01:55:00,
2013-02-18 20:00:00,57.7,11.8,30.23,WNW,295,5.0,0.0,16,0.00,,,0.00,1,WeatherHawk,2013-02-19 02:00:00,
2013-02-18 20:06:00,58.0,10.7,30.24,NNE,18,4.0,0.0,15,0.00,,,0.00,1,WeatherHawk,2013-02-19 02:06:00,
2013-02-18 20:11:00,57.7,11.9,30.24,WNW,303,6.0,0.0,16,0.00,,,0.00,1,WeatherHawk,2013-02-19 02:11:00,
2013-02-18 20:17:00,57.9,12.0,30.24,NE,35,6.0,0.0,16,0.00,,,0.00,0,WeatherHawk,2013-02-19 02:17:00,
2013-02-18 20:23:00,57.5,11.7,30.25,West,275,5.0,0.0,16,0.00,,,0.00,1,WeatherHawk,2013-02-19 02:23:00,
2013-02-18 20:28:00,57.4,12.9,30.25,NNE,31,5.0,0.0,17,0.00,,,0.00,1,WeatherHawk,2013-02-19 02:28:00,
2013-02-18 20:34:00,57.2,14.1,30.26,NW,305,6.0,0.0,18,0.00,,,0.00,1,WeatherHawk,2013-02-19 02:34:00,
2013-02-18 20:39:00,56.9,13.8,30.26,ENE,59,2.0,0.0,18,0.00,,,0.00,0,WeatherHawk,2013-02-19 02:39:00,
2013-02-18 20:45:00,56.1,13.2,30.26,WSW,255,2.0,0.0,18,0.00,,,0.00,1,WeatherHawk,2013-02-19 02:45:00,
2013-02-18 20:50:00,56.9,13.8,30.26,WNW,295,7.0,0.0,18,0.00,,,0.00,1,WeatherHawk,2013-02-19 02:50:00,
2013-02-18 20:55:00,56.2,13.3,30.26,NW,316,2.0,-999.0,18,0.00,,,0.00,1,WeatherHawk,2013-02-19 02:55:00,
2013-02-18 21:00:00,56.7,12.4,30.26,NNW,331,5.0,0.0,17,0.00,,,0.00,0,WeatherHawk,2013-02-19 03:00:00,
2013-02-18 21:05:00,56.9,13.9,30.27,NW,321,6.0,0.0,18,0.00,,,0.00,0,WeatherHawk,2013-02-19 03:05:00,
2013-02-18 21:10:00,56.1,13.2,30.27,NNW,345,1.0,0.0,18,0.00,,,0.00,0,WeatherHawk,2013-02-19 03:10:00,
2013-02-18 21:15:00,56.1,11.9,30.27,NNW,342,5.0,-999.0,17,0.00,,,0.00,1,WeatherHawk,2013-02-19 03:15:00,
2013-02-18 21:20:00,56.1,11.9,30.28,NW,326,7.0,0.0,17,0.00,,,0.00,1,WeatherHawk,2013-02-19 03:20:00,
2013-02-18 21:25:00,55.7,12.8,30.29,NW,322,5.0,0.0,18,0.00,,,0.00,0,WeatherHawk,2013-02-19 03:25:00,
2013-02-18 21:31:00,56.0,11.9,30.29,NW,321,7.0,0.0,17,0.00,,,0.00,0,WeatherHawk,2013-02-19 03:31:00,
2013-02-18 21:36:00,55.4,11.4,30.29,WNW,297,5.0,0.0,17,0.00,,,0.00,0,WeatherHawk,2013-02-19 03:36:00,
2013-02-18 21:41:00,55.3,12.6,30.29,NW,319,5.0,0.0,18,0.00,,,0.00,0,WeatherHawk,2013-02-19 03:41:00,
2013-02-18 21:46:00,55.3,12.6,30.30,NW,315,4.0,0.0,18,0.00,,,0.00,0,WeatherHawk,2013-02-19 03:46:00,
2013-02-18 21:51:00,55.7,11.6,30.31,WNW,289,5.0,0.0,17,0.00,,,0.00,0,WeatherHawk,2013-02-19 03:51:00,
2013-02-18 21:56:00,54.6,10.7,30.31,West,266,5.0,0.0,17,0.00,,,0.00,0,WeatherHawk,2013-02-19 03:56:00,
2013-02-18 22:01:00,55.7,12.9,30.31,NNW,346,6.0,0.0,18,0.00,,,0.00,0,WeatherHawk,2013-02-19 04:01:00,
2013-02-18 22:06:00,55.9,10.4,30.32,NW,314,8.0,0.0,16,0.00,,,0.00,1,WeatherHawk,2013-02-19 04:06:00,
2013-02-18 22:11:00,55.4,10.0,30.32,NNW,334,6.0,0.0,16,0.00,,,0.00,0,WeatherHawk,2013-02-19 04:11:00,
2013-02-18 22:17:00,55.3,9.9,30.33,NNW,328,7.0,0.0,16,0.00,,,0.00,0,WeatherHawk,2013-02-19 04:17:00,
2013-02-18 22:22:00,55.1,9.7,30.33,NW,316,7.0,0.0,16,0.00,,,0.00,0,WeatherHawk,2013-02-19 04:22:00,
2013-02-18 22:27:00,55.3,11.3,30.33,NW,319,9.0,0.0,17,0.00,,,0.00,0,WeatherHawk,2013-02-19 04:27:00,
2013-02-18 22:32:00,55.0,11.0,30.33,NNW,339,7.0,0.0,17,0.00,,,0.00,0,WeatherHawk,2013-02-19 04:32:00,
2013-02-18 22:37:00,54.8,9.5,30.34,NNW,331,7.0,0.0,16,0.00,,,0.00,1,WeatherHawk,2013-02-19 04:37:00,
2013-02-18 22:42:00,54.6,10.7,30.34,NNW,342,7.0,0.0,17,0.00,,,0.00,1,WeatherHawk,2013-02-19 04:42:00,
2013-02-18 22:48:00,55.0,9.7,30.35,NNE,12,8.0,0.0,16,0.00,,,0.00,0,WeatherHawk,2013-02-19 04:48:00,
2013-02-18 22:53:00,55.2,9.8,30.35,NW,304,10.0,0.0,16,0.00,,,0.00,0,WeatherHawk,2013-02-19 04:53:00,
2013-02-18 22:58:00,54.7,8.0,30.35,WNW,302,11.0,0.0,15,0.00,,,0.00,0,WeatherHawk,2013-02-19 04:58:00,
2013-02-18 23:00:00,54.5,7.8,30.34,North,7,6.0,-999.0,15,0.00,,,0.00,1,WeatherHawk,2013-02-19 05:00:00,
2013-02-18 23:02:00,54.8,10.8,30.35,WNW,293,4.0,0.0,17,0.00,,,0.00,0,WeatherHawk,2013-02-19 05:02:00,
2013-02-18 23:07:00,54.2,10.3,30.34,NNE,29,7.0,0.0,17,0.00,,,0.00,0,WeatherHawk,2013-02-19 05:07:00,
2013-02-18 23:08:00,54.6,7.9,30.35,NNW,330,7.0,0.0,15,0.00,,,0.00,0,WeatherHawk,2013-02-19 05:08:00,
2013-02-18 23:14:00,54.0,10.2,30.35,NNW,336,9.0,0.0,17,0.00,,,0.00,0,WeatherHawk,2013-02-19 05:14:00,
2013-02-18 23:19:00,53.9,7.3,30.35,North,5,7.0,0.0,15,0.00,,,0.00,1,WeatherHawk,2013-02-19 05:19:00,
2013-02-18 23:25:00,53.8,7.2,30.34,WNW,285,9.0,-999.0,15,0.00,,,0.00,0,WeatherHawk,2013-02-19 05:25:00,
2013-02-18 23:30:00,53.6,8.5,30.35,NE,35,6.0,0.0,16,0.00,,,0.00,1,WeatherHawk,2013-02-19 05:30:00,
2013-02-18 23:35:00,53.1,9.4,30.34,NNW,348,5.0,-999.0,17,0.00,,,0.00,1,WeatherHawk,2013-02-19 05:35:00,
2013-02-18 23:40:00,53.0,10.6,30.35,WSW,238,5.0,0.0,18,0.00,,,0.00,0,WeatherHawk,2013-02-19 05:40:00,
2013-02-18 23:45:00,53.0,10.6,30.36,WNW,291,3.0,0.0,18,0.00,,,0.00,1,WeatherHawk,2013-02-19 05:45:00,
2013-02-18 23:51:00,52.4,11.4,30.35,North,3,5.0,0.0,19,0.00,,,0.00,0,WeatherHawk,2013-02-19 05:51:00,
2013-02-18 23:56:00,52.4,11.3,30.36,NW,306,5.0,0.0,19,0.00,,,0.00,1,WeatherHawk,2013-02-19 05:56:00,